Skip Page Navigation
NASA JPL Caltech
NASA Logo - Jet Propulsion Laboratory + View the NASA Portal
+ Center for Near-Earth Object Studies
JPL Home Earth Solar System Stars & Galaxies Technology
JPL Solar System Dynamics
BODIES ORBITS EPHEMERIDES TOOLS PHYSICAL DATA DISCOVERY FAQ SITE MAP
IMPORTANT: The SSD Announcement email list is now available. Major changes are coming in the near future, including possible hostname and/or URL changes. To be notified of such changes, subscribe to this email list.

Please visit this page for more details.


JPL Small-Body Database Browser
Search: [ help ]  
71765 (2000 SU4)
Classification: Inner Main-belt Asteroid          SPK-ID: 2071765
Ephemeris | Orbit Diagram | Orbital Elements | Mission Design | Physical Parameters | Discovery Circumstances | Close-Approach Data ]

[ show orbit diagram ]
Orbital Elements at Epoch 2458600.5 (2019-Apr-27.0) TDB
Reference: JPL 20 (heliocentric ecliptic J2000)
 Element Value Uncertainty (1-sigma)   Units 
e .06146921742324987 3.2891e-08  
a 1.931083051967937 6.0964e-09 au
q 1.812380887984167 6.3765e-08 au
i 21.44361897698163 5.7578e-06 deg
node 17.29120496360443 9.8336e-06 deg
peri 78.90330758231374 4.5264e-05 deg
M 240.1417235331637 4.3335e-05 deg
tp 2458926.836298287045
(2020-Mar-18.33629829)
0.000118 TDB
period 980.1665003571304
2.68
4.6416e-06
1.271e-08
d
yr
n .3672845377482616 1.7393e-09 deg/d
Q 2.049785215951707 6.4712e-09 au
  Orbit Determination Parameters
   # obs. used (total)      1014  
   data-arc span      7567 days (20.72 yr)  
   first obs. used      1999-02-11  
   last obs. used      2019-10-31  
   planetary ephem.      DE431  
   SB-pert. ephem.      SB431-N16  
   condition code      0  
   norm. resid. RMS      .50422  
   source      ORB  
   producer      Otto Matic  
   solution date      2019-Nov-07 08:32:28  

Additional Information
 Earth MOID = .887649 au 
 Jupiter MOID = 3.03539 au 
 T_jup = 3.826 
[ show covariance matrix ]

Ephemeris | Orbit Diagram | Orbital Elements | Mission Design | Physical Parameters | Discovery Circumstances | Close-Approach Data ]

Physical Parameter Table
Parameter Symbol Value Units Sigma Reference Notes
absolute magnitude H 14.9   n/a MPO337801  
diameter diameter 1.734 km 0.119 urn:nasa:pds:neowise_diameters_albedos::2.0[mainbelt] (http://adsabs.harvard.edu/abs/2011ApJ...741...68M)  
rotation period rot_per 70.72 h n/a LCDB (Rev. 2019-January); Warner et al., 2009 Result based on less than full coverage, so that the period may be wrong by 30 percent or so.
Published Reference List:
[Stephens, R.D. (2015) Minor Planet Bull. 42, 200-203.]
geometric albedo albedo 0.445   0.119 urn:nasa:pds:neowise_diameters_albedos::2.0[mainbelt] (http://adsabs.harvard.edu/abs/2011ApJ...741...68M)  

71765 (2000 SU4)          Discovered 2000-Sep-20 by LINEAR at Socorro
Reference: 20031109/Numbers.arcLast Updated: 2004-04-19

[ hide close-approach data ]
Close-Approach Data   ...sorted by Date/Time (TDB)
Date/Time (TDB) Time Uncertainty
(days_HH:MM)
Body Nominal Distance (au) Minimum Distance (au) Maximum Distance (au) V-relative (km/s) V-infinity (km/s) JD (TDB) Time Uncertainty (minutes) Semi-major axis (km) Semi-minor axis (km) range-LOV angle (deg) N-sigma BP Orbit Ref. Reference Modified
2054-Aug-25 08:52 < 00:01 Iris 0.0270383151606612 0.0270375242240943 0.0270391068284991 10.0311634436209 10.0311634224255 2471504.869352352 0.197147621430579 410.749517390233 33.1502891916273 87.0042612300496 121837.168016354 T 20 CATAB v2.0f-lin.ifort 2019-Nov-07 08:32:50 2019-Nov-07 08:32

Alternate Designations
 2000 SU4 = 1999 EV14 
Ephemeris | Orbit Diagram | Orbital Elements | Mission Design | Physical Parameters | Discovery Circumstances | Close-Approach Data ]
ABOUT SSD CREDITS/AWARDS PRIVACY/COPYRIGHT GLOSSARY LINKS
FirstGov
(server date/time)  
NASA Home Page
Site Manager:   Ryan S. Park
Webmaster  Alan B. Chamberlin